Weather History for Bismarck, ND

Change the Weather History Date:

Wednesday, July 3, 2013

  Actual Average Record
Temperature  
Mean Temperature 72 °F 69 °F  
Max Temperature 88 °F 82 °F 101 °F (1881)
Min Temperature 55 °F 56 °F 38 °F (1967)
Degree Days  
Heating Degree Days 0 1  
Month to date heating degree days 0 3  
Since 1 June heating degree days 86 96  
Since 1 July heating degree days 0 3  
Cooling Degree Days 7 5  
Month to date cooling degree days 13 15  
Year to date cooling degree days 109 115  
Since 1 June cooling degree days 97 98  
Growing Degree Days 22 (Base 50)    
Moisture  
Dew Point 54 °F    
Average Humidity 62    
Maximum Humidity 93    
Minimum Humidity 30    
Precipitation  
Precipitation 0.00 in 0.09 in 1.41 in (1980)
Month to date precipitation 0.00 0.29  
Year to date precipitation 13.31 8.93  
Snow  
Snow 0.00 in 0.00 in 0.00 in (2002)
Month to date snowfall 0.0 0.0  
Since 1 June snowfall 0.0 0.0  
Since 1 July snowfall 0.0 0.0  
Snow Depth 0.00 in    
Sea Level Pressure  
Sea Level Pressure 29.92 in    
Wind  
Wind Speed 10 mph (SE)    
Max Wind Speed 23 mph    
Max Gust Speed 28 mph    
Visibility 10 miles    
Events      
T = Trace of Precipitation, MM = Missing Value Source: NWS Daily Summary

Daily Weather History Graph

Daily Weather History Graph

Search for Another Location

Airport:

Trip Planner

Search our weather history database for the weather conditions in past years. The results will help you decide how hot, cold, wet, or windy it might be!

Date:

Astronomy

Jul. 03, 2013 Rise Set
Actual Time 5:54 AM CDT 9:40 PM CDT
Civil Twilight 5:15 AM CDT 10:19 PM CDT
Nautical Twilight 4:22 AM CDT 11:11 PM CDT
Astronomical Twilight 3:06 AM CDT 12:26 AM CDT
Moon 2:41 AM CDT (7/3) 5:46 PM CDT (7/3)
Length of Visible Light 17h 03m
Length of Day
15h 45m
Waning Crescent, 18% of the Moon is Illuminated
Jul 3
Waning Crescent
Jul 8
New
Jul 15
First Quarter
Jul 22
Full
Jul 29
Last Quarter

Hourly Weather History & Observations

Time (CDT) Temp. Heat Index Dew Point Humidity Pressure Visibility Wind Dir Wind Speed Gust Speed Precip Events Conditions
12:52 AM 61.0 °F - 55.9 °F 83% 30.03 in 10.0 mi ENE 5.8 mph - N/A   Clear
1:52 AM 61.0 °F - 55.9 °F 83% 30.02 in 10.0 mi NE 3.5 mph - N/A   Clear
2:52 AM 59.0 °F - 54.0 °F 83% 30.01 in 10.0 mi ENE 3.5 mph - N/A   Clear
3:52 AM 57.0 °F - 53.1 °F 87% 30.00 in 10.0 mi ESE 5.8 mph - N/A   Clear
4:52 AM 55.9 °F - 53.1 °F 90% 30.00 in 10.0 mi ENE 5.8 mph - N/A   Clear
5:52 AM 55.9 °F - 52.0 °F 87% 30.00 in 10.0 mi ENE 6.9 mph - N/A   Clear
6:52 AM 57.9 °F - 53.1 °F 84% 30.01 in 6.0 mi NE 4.6 mph - N/A   Haze
7:52 AM 62.1 °F - 55.9 °F 80% 30.00 in 8.0 mi ENE 4.6 mph - N/A   Clear
8:52 AM 69.1 °F - 55.9 °F 63% 29.98 in 10.0 mi SE 6.9 mph - N/A   Clear
9:52 AM 75.0 °F - 57.0 °F 53% 29.97 in 10.0 mi South 10.4 mph - N/A   Clear
10:52 AM 79.0 °F - 57.0 °F 47% 29.95 in 10.0 mi SSE 16.1 mph - N/A   Clear
11:52 AM 82.0 °F 81.2 °F 53.1 °F 37% 29.93 in 10.0 mi South 19.6 mph - N/A   Clear
12:52 PM 84.0 °F 82.5 °F 53.1 °F 34% 29.91 in 10.0 mi SSE 17.3 mph - N/A   Clear
1:52 PM 84.9 °F - 50.0 °F 30% 29.90 in 10.0 mi SSE 15.0 mph - N/A   Clear
2:52 PM 86.0 °F - 51.1 °F 30% 29.88 in 10.0 mi SSE 17.3 mph 23.0 mph N/A   Clear
3:52 PM 86.0 °F - 51.1 °F 30% 29.87 in 10.0 mi SE 13.8 mph 21.9 mph N/A   Clear
4:52 PM 86.0 °F - 51.1 °F 30% 29.85 in 10.0 mi SE 12.7 mph - N/A   Clear
5:52 PM 86.0 °F - 52.0 °F 31% 29.83 in 10.0 mi SE 10.4 mph - N/A   Clear
6:52 PM 84.9 °F 83.2 °F 53.1 °F 33% 29.81 in 10.0 mi SSE 13.8 mph - N/A   Clear
7:52 PM 82.0 °F 81.6 °F 55.9 °F 41% 29.80 in 10.0 mi SSE 10.4 mph - N/A   Clear
8:52 PM 77.0 °F - 57.9 °F 52% 29.78 in 10.0 mi SE 9.2 mph - N/A   Clear
9:52 PM 71.1 °F - 57.0 °F 61% 29.78 in 10.0 mi SE 9.2 mph - N/A   Clear
10:52 PM 69.1 °F - 55.9 °F 63% 29.78 in 10.0 mi SSE 8.1 mph - N/A   Clear
11:52 PM 72.0 °F - 55.0 °F 55% 29.78 in 10.0 mi South 11.5 mph - N/A   Clear